Погода в Дастакерте

Армения     39˚22′45″N   46˚01′44″E
темп.,
°C
ветер,
м/с
пор.,
м/с
влажн.,
%
обл.,
%
осадки,
мм/ч
давл.,
гПа
погр.,
м
16 января, сб
сб1601:00−6˚зюз348719 0.1 101555
04:00−7˚зюз23809 0.1 101638
07:00−7˚зюз348314 0.0 101752
10:00−4˚зсз228513 0.0 101873
13:00−1˚зюз238725 0.0 1017351
16:00з228320 0.0 1015159
19:00−6˚зсз127528 0.0 101724
22:00−6˚з126853 0.0 101625
17 января, вс
вс1701:00−7˚з22661 0.0 101525
04:00−7˚зсз226613 0.0 101324
07:00−7˚з226414 0.0 101224
10:00−4˚з23759 0.0 101152
13:00з34800 0.0 1008496
16:00−1˚з338022 0.0 1006186
19:00−6˚з227648 0.0 100730
22:00−7˚з226824 0.0 100726
18 января, пн
пн1801:00−7˚з23770 0.0 100632
04:00−6˚з347814 0.0 100544
07:00−6˚з348329 0.0 100553
10:00−3˚зюз369232 0.2 1006347
13:00зюз6158389 0.3 10051509
16:00−1˚зюз5118162 0.4 10051162
19:00−4˚з4127486 1.1 1009566
22:00−7˚з347687 1.2 101252
19 января, вт
вт1901:00−7˚з127552 0.0 101429
04:00−7˚зюз118476 0.3 101434
07:00−7˚зюз119395 0.6 101544
10:00−6˚юз029094 0.9 1016135
13:00−4˚юв1385100 0.6 1012509
16:00−3˚ююв2695100 2.3 1008466
19:00−4˚юв2594100 2.6 1010215
22:00−5˚юв2397100 5.8 1012147
20 января, ср
ср2001:00−6˚зюз0297100 4.9 1014117
04:00−7˚вюв1196100 8.3 101783
07:00−8˚юв1196100 2.3 101856
10:00−8˚вюв2294100 3.4 1020146
13:00−8˚в3391100 0.7 1020311
16:00−9˚в3392100 1.4 1020302
19:00−13˚в2295100 0.4 102325
22:00−15˚всв2293100 0.6 102622